,,,PA_Meas_PMT16A,,PR_Meas_QMR101_102,,RH_Meas_QMH101,,SR_Meas_QMS101,,TA_Meas_QMH101,,GenWind,,GenWind,
date,time,status,PA,status,PR,status,RH,status,SR,status,TA,status,DirAvg,status,SpdAvg,
2009-10-04, 00:00:05,VALID,1005.31,VALID,0,VALID,92.401,VALID,0,VALID,24.4822,VALID,60,VALID,0,
2009-10-04, 00:01:05,VALID,1005.28,VALID,0,VALID,92.4773,VALID,0,VALID,24.422,VALID,60,VALID,0,
2009-10-04, 00:02:05,VALID,1005.28,VALID,0,VALID,92.4849,VALID,0,VALID,24.4238,VALID,60,VALID,0,
2009-10-04, 00:03:05,VALID,1005.24,VALID,0,VALID,92.5917,VALID,0,VALID,24.4238,VALID,60,VALID,0,
2009-10-04, 00:04:05,VALID,1005.26,VALID,0,VALID,92.668,VALID,0,VALID,24.4043,VALID,60,VALID,0,
2009-10-04, 00:05:05,VALID,1005.25,VALID,0,VALID,92.729,VALID,0,VALID,24.3654,VALID,60,VALID,0,
2009-10-04, 00:06:05,VALID,1005.23,VALID,0,VALID,92.8282,VALID,0,VALID,24.3849,VALID,60,VALID,0,
2009-10-04, 00:07:05,VALID,1005.26,VALID,0,VALID,92.8587,VALID,0,VALID,24.3849,VALID,60,VALID,0,
2009-10-04, 00:08:05,VALID,1005.24,VALID,0,VALID,92.8664,VALID,0,VALID,24.3849,VALID,60,VALID,0,
2009-10-04, 00:09:05,VALID,1005.24,VALID,0,VALID,92.9045,VALID,0,VALID,24.3636,VALID,60,VALID,0,
2009-10-04, 00:10:05,VALID,1005.23,VALID,0,VALID,92.9808,VALID,0,VALID,24.3849,VALID,60,VALID,0,
2009-10-04, 00:11:05,VALID,1005.21,VALID,0,VALID,92.9655,VALID,0,VALID,24.3849,VALID,60,VALID,0,
2009-10-04, 00:12:05,VALID,1005.17,VALID,0,VALID,92.9732,VALID,0,VALID,24.3654,VALID,60,VALID,0,
2009-10-04, 00:13:05,VALID,1005.17,VALID,0,VALID,93.0266,VALID,0.100563,VALID,24.3636,VALID,60,VALID,0,
2009-10-04, 00:14:05,VALID,1005.17,VALID,0,VALID,93.0723,VALID,0,VALID,24.3636,VALID,60,VALID,0,
2009-10-04, 00:15:05,VALID,1005.13,VALID,0,VALID,93.1715,VALID,0,VALID,24.3441,VALID,60,VALID,0,
2009-10-04, 00:16:05,VALID,1005.09,VALID,0,VALID,93.2631,VALID,0.100563,VALID,24.3441,VALID,60,VALID,0,
2009-10-04, 00:17:05,VALID,1005.11,VALID,0,VALID,93.347,VALID,0,VALID,24.3441,VALID,60,VALID,0,
2009-10-04, 00:18:05,VALID,1005.09,VALID,0,VALID,93.3928,VALID,0,VALID,24.3246,VALID,60,VALID,0,
2009-10-04, 00:19:05,VALID,1005.11,VALID,0,VALID,93.4156,VALID,0,VALID,24.3052,VALID,60,VALID,0,
2009-10-04, 00:20:05,VALID,1005.09,VALID,0,VALID,93.4233,VALID,0,VALID,24.2857,VALID,60,VALID,0,
2009-10-04, 00:21:05,VALID,1005.09,VALID,0,VALID,93.4309,VALID,0,VALID,24.2662,VALID,60,VALID,0,
2009-10-04, 00:22:05,VALID,1005.1,VALID,0,VALID,93.4614,VALID,0.100563,VALID,24.2468,VALID,60,VALID,0,
2009-10-04, 00:23:05,VALID,1005.06,VALID,0,VALID,93.5072,VALID,0.100563,VALID,24.2078,VALID,60,VALID,0,
2009-10-04, 00:24:05,VALID,1005.07,VALID,0,VALID,93.553,VALID,0.100563,VALID,24.2486,VALID,60,VALID,0,
2009-10-04, 00:25:05,VALID,1005.04,VALID,0,VALID,93.6064,VALID,0,VALID,24.2078,VALID,60,VALID,0,
2009-10-04, 00:26:05,VALID,1005.05,VALID,0,VALID,93.6292,VALID,0,VALID,24.1884,VALID,60,VALID,0,
2009-10-04, 00:27:05,VALID,1005.06,VALID,0,VALID,93.6826,VALID,0.100563,VALID,24.2273,VALID,60,VALID,0,
2009-10-04, 00:28:05,VALID,1005.03,VALID,0,VALID,93.7208,VALID,0,VALID,24.2291,VALID,61,VALID,0,
2009-10-04, 00:29:05,VALID,1005.05,VALID,0,VALID,93.7666,VALID,0,VALID,24.2291,VALID,68,VALID,0.340234,
2009-10-04, 00:30:05,VALID,1005.04,VALID,0,VALID,93.8047,VALID,0,VALID,24.2486,VALID,76,VALID,0.522266,
2009-10-04, 00:31:05,VALID,1005.04,VALID,0,VALID,93.7895,VALID,0,VALID,24.2699,VALID,76,VALID,0.326562,
2009-10-04, 00:32:05,VALID,1005.07,VALID,0,VALID,93.7361,VALID,0,VALID,24.2291,VALID,76,VALID,0.262109,
2009-10-04, 00:33:05,VALID,1005.07,VALID,0,VALID,93.7208,VALID,0,VALID,24.2291,VALID,76,VALID,0.0898438,
2009-10-04, 00:34:05,VALID,1005.09,VALID,0,VALID,93.7284,VALID,0,VALID,24.2291,VALID,76,VALID,0.258203,
2009-10-04, 00:35:05,VALID,1005.1,VALID,0,VALID,93.7361,VALID,0,VALID,24.2504,VALID,76,VALID,0.284766,
2009-10-04, 00:36:05,VALID,1005.12,VALID,0,VALID,93.7818,VALID,0,VALID,24.2291,VALID,70,VALID,0.510938,
2009-10-04, 00:37:05,VALID,1005.16,VALID,0,VALID,93.7971,VALID,0,VALID,24.2078,VALID,62,VALID,0.285547,
2009-10-04, 00:38:05,VALID,1005.17,VALID,0,VALID,93.7589,VALID,0,VALID,24.2291,VALID,62,VALID,0.310937,
2009-10-04, 00:39:05,VALID,1005.15,VALID,0,VALID,93.7589,VALID,0,VALID,24.2291,VALID,62,VALID,0.358984,
2009-10-04, 00:40:05,VALID,1005.16,VALID,0,VALID,93.7818,VALID,0,VALID,24.2486,VALID,62,VALID,0.205078,
2009-10-04, 00:41:04,VALID,1005.14,VALID,0,VALID,93.7589,VALID,0,VALID,24.2291,VALID,62,VALID,0.0242187,
2009-10-04, 00:42:04,VALID,1005.17,VALID,0,VALID,93.7742,VALID,0,VALID,24.2273,VALID,62,VALID,0.330859,
2009-10-04, 00:43:04,VALID,1005.13,VALID,0,VALID,93.8276,VALID,0,VALID,24.2273,VALID,62,VALID,0.0210938,
2009-10-04, 00:44:04,VALID,1005.11,VALID,0,VALID,93.8657,VALID,0,VALID,24.2291,VALID,62,VALID,0,
2009-10-04, 00:45:04,VALID,1005.1,VALID,0,VALID,93.8886,VALID,0,VALID,24.2486,VALID,62,VALID,0.303516,
2009-10-04, 00:46:04,VALID,1005.12,VALID,0,VALID,93.9115,VALID,0,VALID,24.2486,VALID,62,VALID,0.204688,
2009-10-04, 00:47:04,VALID,1005.12,VALID,0,VALID,93.9268,VALID,0,VALID,24.2486,VALID,62,VALID,0.422656,
2009-10-04, 00:48:04,VALID,1005.11,VALID,0,VALID,93.942,VALID,0,VALID,24.2486,VALID,62,VALID,0.3,
2009-10-04, 00:49:04,VALID,1005.14,VALID,0,VALID,93.9725,VALID,0,VALID,24.2681,VALID,62,VALID,0.134375,
2009-10-04, 00:50:04,VALID,1005.14,VALID,0,VALID,93.9802,VALID,0,VALID,24.2681,VALID,62,VALID,0.520312,
2009-10-04, 00:51:04,VALID,1005.16,VALID,0,VALID,94.0107,VALID,0,VALID,24.2662,VALID,62,VALID,0.395312,
2009-10-04, 00:52:04,VALID,1005.15,VALID,0,VALID,94.0031,VALID,0,VALID,24.307,VALID,62,VALID,0.301562,
2009-10-04, 00:53:04,VALID,1005.16,VALID,0,VALID,93.9649,VALID,0,VALID,24.307,VALID,62,VALID,0,
2009-10-04, 00:54:04,VALID,1005.13,VALID,0,VALID,93.9649,VALID,0,VALID,24.2857,VALID,62,VALID,0,
2009-10-04, 00:55:04,VALID,1005.11,VALID,0,VALID,93.9344,VALID,0,VALID,24.3265,VALID,62,VALID,0,
2009-10-04, 00:56:04,VALID,1005.12,VALID,0,VALID,93.9191,VALID,0,VALID,24.3052,VALID,62,VALID,0,
2009-10-04, 00:57:04,VALID,1005.1,VALID,0,VALID,93.8886,VALID,0,VALID,24.3265,VALID,62,VALID,0,
2009-10-04, 00:58:04,VALID,1005.08,VALID,0,VALID,93.8886,VALID,0,VALID,24.3265,VALID,62,VALID,0,
2009-10-04, 00:59:04,VALID,1005.09,VALID,0,VALID,93.8505,VALID,0,VALID,24.3459,VALID,62,VALID,0,
2009-10-04, 01:00:04,VALID,1005.06,VALID,0,VALID,93.82,VALID,0,VALID,24.3246,VALID,62,VALID,0,
2009-10-04, 01:01:04,VALID,1005.03,VALID,0,VALID,93.8429,VALID,0,VALID,24.3246,VALID,62,VALID,0,
2009-10-04, 01:02:04,VALID,1005.01,VALID,0,VALID,93.8123,VALID,0,VALID,24.3246,VALID,62,VALID,0,
2009-10-04, 01:03:04,VALID,1005.01,VALID,0,VALID,93.82,VALID,0,VALID,24.3459,VALID,62,VALID,0,
2009-10-04, 01:04:04,VALID,1005.01,VALID,0,VALID,93.7666,VALID,0,VALID,24.3052,VALID,62,VALID,0,
2009-10-04, 01:05:04,VALID,1004.99,VALID,0,VALID,93.6826,VALID,0,VALID,24.307,VALID,60,VALID,0,
2009-10-04, 01:06:04,VALID,1004.98,VALID,0,VALID,93.6598,VALID,0,VALID,24.2875,VALID,60,VALID,0,
2009-10-04, 01:07:04,VALID,1004.93,VALID,0,VALID,93.6598,VALID,0,VALID,24.2255,VALID,60,VALID,0,
2009-10-04, 01:08:04,VALID,1004.91,VALID,0,VALID,93.6674,VALID,0,VALID,24.2486,VALID,60,VALID,0,
2009-10-04, 01:09:04,VALID,1004.9,VALID,0,VALID,93.675,VALID,0,VALID,24.2291,VALID,60,VALID,0,
2009-10-04, 01:10:04,VALID,1004.89,VALID,0,VALID,93.6979,VALID,0,VALID,24.1902,VALID,60,VALID,0,
2009-10-04, 01:11:04,VALID,1004.87,VALID,0,VALID,93.6979,VALID,0,VALID,24.1494,VALID,60,VALID,0,
2009-10-04, 01:12:04,VALID,1004.84,VALID,0,VALID,93.7513,VALID,0,VALID,24.1707,VALID,60,VALID,0,
2009-10-04, 01:13:04,VALID,1004.83,VALID,0,VALID,93.8047,VALID,0,VALID,24.1707,VALID,60,VALID,0,
2009-10-04, 01:14:04,VALID,1004.81,VALID,0,VALID,93.8123,VALID,0,VALID,24.1494,VALID,60,VALID,0,
2009-10-04, 01:15:04,VALID,1004.8,VALID,0,VALID,93.8505,VALID,0,VALID,24.1513,VALID,60,VALID,0,
2009-10-04, 01:16:04,VALID,1004.78,VALID,0,VALID,93.8886,VALID,0,VALID,24.1318,VALID,60,VALID,0,
2009-10-04, 01:17:04,VALID,1004.8,VALID,0,VALID,93.8886,VALID,0,VALID,24.1105,VALID,60,VALID,0,
2009-10-04, 01:18:04,VALID,1004.76,VALID,0,VALID,93.9344,VALID,0,VALID,24.1123,VALID,60,VALID,0,
2009-10-04, 01:19:04,VALID,1004.78,VALID,0,VALID,93.9573,VALID,0,VALID,24.091,VALID,60,VALID,0,
2009-10-04, 01:20:04,VALID,1004.77,VALID,0,VALID,93.9802,VALID,0,VALID,24.1123,VALID,60,VALID,0,
2009-10-04, 01:21:04,VALID,1004.76,VALID,0,VALID,93.9878,VALID,0,VALID,24.0716,VALID,52,VALID,0,
2009-10-04, 01:22:04,VALID,1004.77,VALID,0,VALID,94.0565,VALID,0,VALID,24.091,VALID,51,VALID,0,
2009-10-04, 01:23:04,VALID,1004.76,VALID,0,VALID,94.0794,VALID,0,VALID,24.1123,VALID,52,VALID,0,
2009-10-04, 01:24:04,VALID,1004.77,VALID,0,VALID,94.1251,VALID,0,VALID,24.1318,VALID,52,VALID,0,
2009-10-04, 01:25:04,VALID,1004.78,VALID,0,VALID,94.1709,VALID,0,VALID,24.1318,VALID,52,VALID,0,
2009-10-04, 01:26:04,VALID,1004.74,VALID,0,VALID,94.209,VALID,0,VALID,24.1707,VALID,51,VALID,0,
2009-10-04, 01:27:04,VALID,1004.79,VALID,0,VALID,94.209,VALID,0,VALID,24.1494,VALID,51,VALID,0,
2009-10-04, 01:28:04,VALID,1004.79,VALID,0,VALID,94.1862,VALID,0,VALID,24.1902,VALID,51,VALID,0,
2009-10-04, 01:29:04,VALID,1004.8,VALID,0,VALID,94.1175,VALID,0,VALID,24.1707,VALID,51,VALID,0,
2009-10-04, 01:30:04,VALID,1004.77,VALID,0,VALID,94.0717,VALID,0,VALID,24.1707,VALID,51,VALID,0,
2009-10-04, 01:31:04,VALID,1004.79,VALID,0,VALID,94.0565,VALID,0,VALID,24.1513,VALID,51,VALID,0,
2009-10-04, 01:32:04,VALID,1004.78,VALID,0,VALID,94.0717,VALID,0,VALID,24.1689,VALID,23,VALID,0,
2009-10-04, 01:33:04,VALID,1004.78,VALID,0,VALID,94.0641,VALID,0,VALID,24.1707,VALID,23,VALID,0,
2009-10-04, 01:34:04,VALID,1004.79,VALID,0,VALID,94.0336,VALID,0,VALID,24.1513,VALID,23,VALID,0,
2009-10-04, 01:35:04,VALID,1004.78,VALID,0,VALID,94.0259,VALID,0,VALID,24.1513,VALID,23,VALID,0,
2009-10-04, 01:36:04,VALID,1004.78,VALID,0,VALID,94.0183,VALID,0,VALID,24.1707,VALID,23,VALID,0,
2009-10-04, 01:37:04,VALID,1004.79,VALID,0,VALID,94.0031,VALID,0,VALID,24.1902,VALID,23,VALID,0,
2009-10-04, 01:38:04,VALID,1004.77,VALID,0,VALID,93.9725,VALID,0,VALID,24.1707,VALID,23,VALID,0,
2009-10-04, 01:39:04,VALID,1004.77,VALID,0,VALID,93.9725,VALID,0,VALID,24.1707,VALID,23,VALID,0,
2009-10-04, 01:40:04,VALID,1004.73,VALID,0,VALID,93.9802,VALID,0,VALID,24.1902,VALID,23,VALID,0,
2009-10-04, 01:41:04,VALID,1004.74,VALID,0,VALID,93.942,VALID,0,VALID,24.1707,VALID,68,VALID,0,
2009-10-04, 01:42:04,VALID,1004.75,VALID,0,VALID,93.942,VALID,0,VALID,24.1902,VALID,69,VALID,0,
2009-10-04, 01:43:04,VALID,1004.73,VALID,0,VALID,93.9039,VALID,0,VALID,24.1689,VALID,69,VALID,0,
2009-10-04, 01:44:04,VALID,1004.76,VALID,0,VALID,93.881,VALID,0,VALID,24.1884,VALID,69,VALID,0,
2009-10-04, 01:45:04,VALID,1004.77,VALID,0,VALID,93.8581,VALID,0,VALID,24.1884,VALID,69,VALID,0,
2009-10-04, 01:46:04,VALID,1004.82,VALID,0,VALID,93.8429,VALID,0.100563,VALID,24.2078,VALID,69,VALID,0,
2009-10-04, 01:47:04,VALID,1004.81,VALID,0,VALID,93.8047,VALID,0,VALID,24.1671,VALID,51,VALID,0,
2009-10-04, 01:48:04,VALID,1004.86,VALID,0,VALID,93.7361,VALID,0,VALID,24.1689,VALID,51,VALID,0.262109,
2009-10-04, 01:49:04,VALID,1004.87,VALID,0,VALID,93.7284,VALID,0,VALID,24.1884,VALID,50,VALID,0.450781,
2009-10-04, 01:50:04,VALID,1004.85,VALID,0,VALID,93.7132,VALID,0.100563,VALID,24.1476,VALID,50,VALID,0.424609,
2009-10-04, 01:51:04,VALID,1004.86,VALID,0,VALID,93.7055,VALID,0.100563,VALID,24.1494,VALID,50,VALID,0.340234,
2009-10-04, 01:52:04,VALID,1004.87,VALID,0,VALID,93.7361,VALID,0,VALID,24.13,VALID,50,VALID,0.136328,
2009-10-04, 01:53:04,VALID,1004.89,VALID,0,VALID,93.7742,VALID,0,VALID,24.13,VALID,50,VALID,0.357031,
2009-10-04, 01:54:04,VALID,1004.85,VALID,0,VALID,93.8123,VALID,0,VALID,24.13,VALID,50,VALID,0.317187,
2009-10-04, 01:55:04,VALID,1004.87,VALID,0,VALID,93.8047,VALID,0,VALID,24.1494,VALID,50,VALID,0.295312,
2009-10-04, 01:56:04,VALID,1004.83,VALID,0,VALID,93.7971,VALID,0,VALID,24.1689,VALID,50,VALID,0.353125,
2009-10-04, 01:57:04,VALID,1004.83,VALID,0,VALID,93.8047,VALID,0.100563,VALID,24.1884,VALID,50,VALID,0.566797,
2009-10-04, 01:58:04,VALID,1004.83,VALID,0,VALID,93.7818,VALID,0,VALID,24.2078,VALID,50,VALID,0.528125,
2009-10-04, 01:59:04,VALID,1004.84,VALID,0,VALID,93.6979,VALID,0.100563,VALID,24.2078,VALID,50,VALID,0.389844,
2009-10-04, 02:00:04,VALID,1004.8,VALID,0,VALID,93.5606,VALID,0,VALID,24.1884,VALID,50,VALID,0.207031,
2009-10-04, 02:01:04,VALID,1004.8,VALID,0,VALID,93.553,VALID,0,VALID,24.2273,VALID,50,VALID,0.601172,
2009-10-04, 02:02:04,VALID,1004.85,VALID,0,VALID,93.5301,VALID,0,VALID,24.2273,VALID,50,VALID,0.315625,
2009-10-04, 02:03:04,VALID,1004.81,VALID,0,VALID,93.4538,VALID,0.100563,VALID,24.2273,VALID,50,VALID,0.537109,
2009-10-04, 02:04:04,VALID,1004.83,VALID,0,VALID,93.4462,VALID,0,VALID,24.2273,VALID,50,VALID,0.565625,
2009-10-04, 02:05:04,VALID,1004.83,VALID,0,VALID,93.4156,VALID,0.100563,VALID,24.2078,VALID,50,VALID,0.441016,
2009-10-04, 02:06:04,VALID,1004.8,VALID,0,VALID,93.3394,VALID,0,VALID,24.2078,VALID,50,VALID,0.393359,
2009-10-04, 02:07:04,VALID,1004.8,VALID,0,VALID,93.3165,VALID,0.100563,VALID,24.1884,VALID,50,VALID,0.321094,
2009-10-04, 02:08:04,VALID,1004.78,VALID,0,VALID,93.4004,VALID,0,VALID,24.1689,VALID,50,VALID,0.408594,
2009-10-04, 02:09:04,VALID,1004.74,VALID,0,VALID,93.4385,VALID,0,VALID,24.1689,VALID,50,VALID,0.221484,
2009-10-04, 02:10:04,VALID,1004.75,VALID,0,VALID,93.4309,VALID,0.100563,VALID,24.1494,VALID,50,VALID,0,
2009-10-04, 02:11:04,VALID,1004.76,VALID,0,VALID,93.4614,VALID,0,VALID,24.1494,VALID,50,VALID,0.216406,
2009-10-04, 02:12:04,VALID,1004.74,VALID,0,VALID,93.4843,VALID,0,VALID,24.1494,VALID,50,VALID,0.222266,
2009-10-04, 02:13:04,VALID,1004.74,VALID,0,VALID,93.4843,VALID,0,VALID,24.1513,VALID,50,VALID,0.371094,
2009-10-04, 02:14:04,VALID,1004.73,VALID,0,VALID,93.5148,VALID,0,VALID,24.1318,VALID,50,VALID,0.251953,
2009-10-04, 02:15:04,VALID,1004.7,VALID,0,VALID,93.5224,VALID,0,VALID,24.091,VALID,50,VALID,0.359375,
2009-10-04, 02:16:04,VALID,1004.7,VALID,0,VALID,93.5453,VALID,0,VALID,24.1105,VALID,50,VALID,0.210547,
2009-10-04, 02:17:04,VALID,1004.64,VALID,0,VALID,93.5911,VALID,0,VALID,24.1318,VALID,50,VALID,0.323828,
2009-10-04, 02:18:04,VALID,1004.66,VALID,0,VALID,93.5911,VALID,0,VALID,24.1318,VALID,50,VALID,0.333984,
2009-10-04, 02:19:04,VALID,1004.66,VALID,0,VALID,93.6292,VALID,0,VALID,24.091,VALID,50,VALID,0.471094,
2009-10-04, 02:20:04,VALID,1004.66,VALID,0,VALID,93.6445,VALID,0,VALID,24.1123,VALID,50,VALID,0.307422,
2009-10-04, 02:21:04,VALID,1004.68,VALID,0,VALID,93.6674,VALID,0,VALID,24.0929,VALID,50,VALID,0.282031,
2009-10-04, 02:22:04,VALID,1004.68,VALID,0,VALID,93.6903,VALID,0,VALID,24.091,VALID,50,VALID,0.3625,
2009-10-04, 02:23:04,VALID,1004.65,VALID,0,VALID,93.6903,VALID,0,VALID,24.1123,VALID,50,VALID,0.455078,
2009-10-04, 02:24:04,VALID,1004.66,VALID,0,VALID,93.6903,VALID,0,VALID,24.0929,VALID,48,VALID,0.444922,
2009-10-04, 02:25:04,VALID,1004.62,VALID,0,VALID,93.7055,VALID,0,VALID,24.0929,VALID,42,VALID,0.345703,
2009-10-04, 02:26:04,VALID,1004.58,VALID,0,VALID,93.7132,VALID,0,VALID,24.0716,VALID,42,VALID,0.210938,
2009-10-04, 02:27:04,VALID,1004.55,VALID,0,VALID,93.7284,VALID,0,VALID,24.1123,VALID,42,VALID,0.214453,
2009-10-04, 02:28:04,VALID,1004.53,VALID,0,VALID,93.6903,VALID,0,VALID,24.0929,VALID,42,VALID,0.0570313,
2009-10-04, 02:29:04,VALID,1004.53,VALID,0,VALID,93.7513,VALID,0,VALID,24.1513,VALID,42,VALID,0,
2009-10-04, 02:30:04,VALID,1004.55,VALID,0,VALID,93.7666,VALID,0,VALID,24.1689,VALID,42,VALID,0,
2009-10-04, 02:31:04,VALID,1004.56,VALID,0,VALID,93.6826,VALID,0,VALID,24.1902,VALID,42,VALID,0.310156,
2009-10-04, 02:32:04,VALID,1004.59,VALID,0,VALID,93.6369,VALID,0,VALID,24.1884,VALID,42,VALID,0.311328,
2009-10-04, 02:33:04,VALID,1004.62,VALID,0,VALID,93.5072,VALID,0,VALID,24.1902,VALID,42,VALID,0.414063,
2009-10-04, 02:34:04,VALID,1004.6,VALID,0,VALID,93.4156,VALID,0,VALID,24.1902,VALID,42,VALID,0.461328,
2009-10-04, 02:35:04,VALID,1004.63,VALID,0,VALID,93.3622,VALID,0,VALID,24.1318,VALID,42,VALID,0.577344,
2009-10-04, 02:36:04,VALID,1004.61,VALID,0,VALID,93.4309,VALID,0,VALID,24.1105,VALID,42,VALID,0.389453,
2009-10-04, 02:37:04,VALID,1004.65,VALID,0,VALID,93.469,VALID,0,VALID,24.091,VALID,42,VALID,0.412891,
2009-10-04, 02:38:04,VALID,1004.64,VALID,0,VALID,93.5377,VALID,0,VALID,24.0521,VALID,42,VALID,0.297266,
2009-10-04, 02:39:04,VALID,1004.61,VALID,0,VALID,93.6292,VALID,0,VALID,24.1123,VALID,42,VALID,0.362109,
2009-10-04, 02:40:04,VALID,1004.67,VALID,0,VALID,93.6598,VALID,0,VALID,24.0521,VALID,42,VALID,0.328906,
2009-10-04, 02:41:04,VALID,1004.7,VALID,0,VALID,93.7284,VALID,0,VALID,24.0734,VALID,42,VALID,0.232422,
2009-10-04, 02:42:04,VALID,1004.68,VALID,0,VALID,93.7818,VALID,0,VALID,24.0716,VALID,42,VALID,0.346484,
2009-10-04, 02:43:04,VALID,1004.72,VALID,0,VALID,93.7971,VALID,0,VALID,24.0521,VALID,42,VALID,0.275781,
2009-10-04, 02:44:04,VALID,1004.71,VALID,0,VALID,93.7895,VALID,0,VALID,24.0734,VALID,42,VALID,0,
2009-10-04, 02:45:04,VALID,1004.67,VALID,0,VALID,93.8047,VALID,0,VALID,24.0734,VALID,42,VALID,0,
2009-10-04, 02:46:04,VALID,1004.69,VALID,0,VALID,93.8047,VALID,0,VALID,24.0734,VALID,42,VALID,0,
2009-10-04, 02:47:04,VALID,1004.66,VALID,0,VALID,93.82,VALID,0,VALID,24.0734,VALID,42,VALID,0,
2009-10-04, 02:48:04,VALID,1004.68,VALID,0,VALID,93.8352,VALID,0,VALID,24.0734,VALID,42,VALID,0,
2009-10-04, 02:49:04,VALID,1004.67,VALID,0,VALID,93.8276,VALID,0,VALID,24.0734,VALID,42,VALID,0,
2009-10-04, 02:50:04,VALID,1004.68,VALID,0,VALID,93.8429,VALID,0,VALID,24.0929,VALID,36,VALID,0,
2009-10-04, 02:51:04,VALID,1004.71,VALID,0,VALID,93.8429,VALID,0,VALID,24.1123,VALID,31,VALID,0.283203,
2009-10-04, 02:52:04,VALID,1004.71,VALID,0,VALID,93.7513,VALID,0,VALID,24.0929,VALID,29,VALID,0.420312,
2009-10-04, 02:53:04,VALID,1004.72,VALID,0,VALID,93.8047,VALID,0,VALID,24.1513,VALID,27,VALID,0.483984,
2009-10-04, 02:54:04,VALID,1004.71,VALID,0,VALID,93.7666,VALID,0,VALID,24.1726,VALID,24,VALID,0.632422,
2009-10-04, 02:55:04,VALID,1004.7,VALID,0,VALID,93.7895,VALID,0,VALID,24.1902,VALID,24,VALID,0.660547,
2009-10-04, 02:56:04,VALID,1004.71,VALID,0,VALID,93.8047,VALID,0,VALID,24.2875,VALID,22,VALID,0.348047,
2009-10-04, 02:57:04,VALID,1004.72,VALID,0,VALID,93.6292,VALID,0,VALID,24.3265,VALID,5,VALID,0.601953,
2009-10-04, 02:58:04,VALID,1004.71,VALID,0,VALID,93.408,VALID,0.100563,VALID,24.3636,VALID,5,VALID,0.608594,
2009-10-04, 02:59:04,VALID,1004.74,VALID,0,VALID,93.1486,VALID,0.100563,VALID,24.4025,VALID,6,VALID,0.517187,
2009-10-04, 03:00:04,VALID,1004.72,VALID,0,VALID,92.9655,VALID,0.100563,VALID,24.4609,VALID,3,VALID,0.517578,
2009-10-04, 03:01:04,VALID,1004.75,VALID,0,VALID,92.6604,VALID,0.100563,VALID,24.5388,VALID,21,VALID,0.642969,
2009-10-04, 03:02:04,VALID,1004.76,VALID,0,VALID,92.195,VALID,0.100563,VALID,24.6945,VALID,46,VALID,0.610156,
2009-10-04, 03:03:04,VALID,1004.76,VALID,0,VALID,91.455,VALID,0.100563,VALID,24.7919,VALID,62,VALID,0.201562,
2009-10-04, 03:04:04,VALID,1004.8,VALID,0,VALID,90.9744,VALID,0.100563,VALID,24.8095,VALID,62,VALID,0.152734,
2009-10-04, 03:05:04,VALID,1004.77,VALID,0,VALID,90.7074,VALID,0.100563,VALID,24.8503,VALID,62,VALID,0.349219,
2009-10-04, 03:06:04,VALID,1004.82,VALID,0,VALID,90.3946,VALID,0.100563,VALID,24.8892,VALID,62,VALID,0.340625,
2009-10-04, 03:07:04,VALID,1004.84,VALID,0,VALID,90.1123,VALID,0.100563,VALID,24.8892,VALID,62,VALID,0.262109,
2009-10-04, 03:08:04,VALID,1004.83,VALID,0,VALID,89.8987,VALID,0,VALID,24.8892,VALID,62,VALID,0.224219,
2009-10-04, 03:09:04,VALID,1004.82,VALID,0,VALID,89.7919,VALID,0.100563,VALID,24.8892,VALID,53,VALID,0.677734,
2009-10-04, 03:10:04,VALID,1004.81,VALID,0,VALID,89.8758,VALID,0.100563,VALID,24.8503,VALID,36,VALID,0.528516,
2009-10-04, 03:11:04,VALID,1004.84,VALID,0,VALID,90.0132,VALID,0.100563,VALID,24.8892,VALID,16,VALID,0.751953,
2009-10-04, 03:12:04,VALID,1004.86,VALID,0,VALID,89.6012,VALID,0,VALID,24.9652,VALID,28,VALID,0.29375,
2009-10-04, 03:13:04,VALID,1004.85,VALID,0,VALID,89.4028,VALID,0,VALID,24.969,VALID,35,VALID,0.563281,
2009-10-04, 03:14:04,VALID,1004.85,VALID,0,VALID,89.4486,VALID,0,VALID,24.9282,VALID,35,VALID,0.509375,
2009-10-04, 03:15:04,VALID,1004.84,VALID,0,VALID,89.5325,VALID,0,VALID,24.8697,VALID,35,VALID,0.425781,
2009-10-04, 03:16:04,VALID,1004.82,VALID,0,VALID,89.7004,VALID,0,VALID,24.7937,VALID,35,VALID,0.482422,
2009-10-04, 03:17:04,VALID,1004.79,VALID,0,VALID,89.9979,VALID,0,VALID,24.7353,VALID,35,VALID,0.419531,
2009-10-04, 03:18:04,VALID,1004.8,VALID,0,VALID,90.3183,VALID,0,VALID,24.6574,VALID,35,VALID,0.309375,
2009-10-04, 03:19:04,VALID,1004.79,VALID,0,VALID,90.593,VALID,0,VALID,24.5777,VALID,35,VALID,0.23125,
2009-10-04, 03:20:04,VALID,1004.81,VALID,0,VALID,90.7837,VALID,0,VALID,24.5406,VALID,35,VALID,0.30625,
2009-10-04, 03:21:04,VALID,1004.83,VALID,0,VALID,90.9057,VALID,0,VALID,24.4628,VALID,35,VALID,0.0542969,
2009-10-04, 03:22:04,VALID,1004.87,VALID,0,VALID,91.2262,VALID,0,VALID,24.383,VALID,35,VALID,0.322266,
2009-10-04, 03:23:04,VALID,1004.87,VALID,0,VALID,91.4779,VALID,0,VALID,24.3654,VALID,35,VALID,0.160156,
2009-10-04, 03:24:04,VALID,1004.9,VALID,0,VALID,91.6915,VALID,0,VALID,24.3052,VALID,35,VALID,0.325391,
2009-10-04, 03:25:04,VALID,1004.89,VALID,0,VALID,91.9204,VALID,0,VALID,24.2875,VALID,35,VALID,0.100781,
2009-10-04, 03:26:04,VALID,1004.87,VALID,0,VALID,92.1645,VALID,0,VALID,24.307,VALID,35,VALID,0.226172,
2009-10-04, 03:27:04,VALID,1004.89,VALID,0,VALID,92.2408,VALID,0,VALID,24.2875,VALID,35,VALID,0.484375,
2009-10-04, 03:28:04,VALID,1004.91,VALID,0,VALID,92.2789,VALID,0,VALID,24.2681,VALID,59,VALID,0.488281,
2009-10-04, 03:29:04,VALID,1004.89,VALID,0,VALID,92.4391,VALID,0,VALID,24.2486,VALID,92,VALID,0.758984,
2009-10-04, 03:30:04,VALID,1004.92,VALID,0,VALID,92.7214,VALID,0,VALID,24.2681,VALID,92,VALID,0.692578,
2009-10-04, 03:31:04,VALID,1004.95,VALID,0,VALID,92.7596,VALID,0,VALID,24.2486,VALID,92,VALID,0.489844,
2009-10-04, 03:32:04,VALID,1004.94,VALID,0,VALID,92.7214,VALID,0,VALID,24.2078,VALID,92,VALID,0.440234,
2009-10-04, 03:33:04,VALID,1004.98,VALID,0,VALID,92.607,VALID,0,VALID,24.1884,VALID,92,VALID,0.542969,
2009-10-04, 03:34:04,VALID,1005,VALID,0,VALID,92.874,VALID,0,VALID,24.2097,VALID,96,VALID,0.386328,
2009-10-04, 03:35:04,VALID,1005.01,VALID,0,VALID,93.0723,VALID,0,VALID,24.307,VALID,81,VALID,0.597266,
2009-10-04, 03:36:04,VALID,1005.02,VALID,0,VALID,92.8053,VALID,0,VALID,24.3246,VALID,101,VALID,0.921875,
2009-10-04, 03:37:04,VALID,1005.05,VALID,0,VALID,92.6222,VALID,0,VALID,24.3441,VALID,81,VALID,0.560547,
2009-10-04, 03:38:04,VALID,1005.06,VALID,0,VALID,92.4315,VALID,0,VALID,24.383,VALID,76,VALID,0.413281,
2009-10-04, 03:39:04,VALID,1005.09,VALID,0,VALID,92.2255,VALID,0,VALID,24.4433,VALID,96,VALID,0.704297,
2009-10-04, 03:40:04,VALID,1005.07,VALID,0,VALID,92.0272,VALID,0,VALID,24.4822,VALID,81,VALID,0.796094,
2009-10-04, 03:41:04,VALID,1005.05,VALID,0,VALID,91.8441,VALID,0,VALID,24.5017,VALID,84,VALID,0.551562,
2009-10-04, 03:42:04,VALID,1005.05,VALID,0,VALID,91.7068,VALID,0,VALID,24.5406,VALID,84,VALID,0.548437,
2009-10-04, 03:43:04,VALID,1005.05,VALID,0,VALID,91.5542,VALID,0,VALID,24.5777,VALID,81,VALID,0.496875,
2009-10-04, 03:44:04,VALID,1005.07,VALID,0,VALID,91.3024,VALID,0,VALID,24.638,VALID,79,VALID,0.417969,
2009-10-04, 03:45:04,VALID,1005.08,VALID,0,VALID,91.1041,VALID,0,VALID,24.6166,VALID,78,VALID,0.581641,
2009-10-04, 03:46:04,VALID,1005.07,VALID,0,VALID,90.9363,VALID,0,VALID,24.599,VALID,77,VALID,0.269922,
2009-10-04, 03:47:04,VALID,1005.05,VALID,0,VALID,90.8752,VALID,0,VALID,24.5582,VALID,77,VALID,0.169531,
2009-10-04, 03:48:04,VALID,1005.07,VALID,0,VALID,90.9515,VALID,0,VALID,24.562,VALID,63,VALID,0.2625,
2009-10-04, 03:49:04,VALID,1005.04,VALID,0,VALID,91.127,VALID,0,VALID,24.5406,VALID,47,VALID,0.324609,
2009-10-04, 03:50:04,VALID,1005.03,VALID,0,VALID,91.3024,VALID,0,VALID,24.4998,VALID,45,VALID,0.0121094,